Temp_Advection
nan nan nan nan nan nan nan nan nan nan nan nan nan nan nan nan nan nan nan nan nan nan nan nan nan nan nan nan nan nan nan nan nan nan nan nan nan nan nan nan nan nan nan nan nan
nan -0 -0 0 1 -0 -0 -0 0 -0 -0 -0 0 -0 -0 0 -0 -0 -0 0 0 -0 0 0 0 0 0 0 0 0 0 -0 0 -0 -0 -0 -0 -0 -0 -0 -0 -1 -0 -0 nan
nan -0 -0 0 0 0 -0 -0 -0 0 -0 -0 -0 -0 0 0 -0 -1 -0 0 -0 0 0 0 0 0 0 0 0 0 -0 0 -0 -0 0 -0 -0 -0 0 -0 -1 -0 -0 -0 nan
nan -0 -0 -0 0 0 0 -0 -0 0 0 -0 -0 0 0 0 -0 -0 0 -0 0 1 0 0 0 0 0 0 0 0 -0 -0 -0 -0 0 0 -0 -0 -0 -1 -0 -0 -0 -0 nan
nan -1 -0 -0 -0 0 0 0 0 0 0 0 0 0 0 0 -0 -0 -0 -0 0 0 0 -0 0 0 -0 0 0 0 -0 -0 -0 -0 -0 -0 -0 -0 -1 -1 -0 -0 -1 -1 nan
nan -1 -1 0 -0 -0 0 0 0 0 0 0 0 0 0 -0 -1 -0 -0 -0 0 0 -0 -0 0 0 0 0 0 0 -0 -0 -0 -0 -0 -0 0 -0 -1 -0 -0 -0 -1 -1 nan
nan -1 -1 -0 -0 0 -0 0 0 0 0 0 0 0 -0 -1 -0 0 0 0 0 0 -0 0 0 0 0 0 -0 0 -0 -0 -0 -0 -0 -0 0 -0 -1 -0 -0 -0 -1 -1 nan
nan -1 -1 -1 -0 -0 -0 0 0 0 0 0 0 -0 -0 -0 0 0 0 0 0 0 0 0 0 0 0 -0 -0 0 0 -0 -0 -0 -0 0 -0 -0 -0 0 0 -0 -1 -2 nan
nan -1 -1 -1 -1 -0 0 0 0 0 0 0 0 -0 -0 -0 -0 0 0 0 -0 0 0 0 0 0 0 0 -0 0 0 -0 -0 -0 0 0 -0 -0 0 -0 -0 -0 -0 -1 nan
nan -1 -1 -1 -1 -0 0 1 0 0 0 -0 0 -0 -0 0 0 0 0 0 0 0 0 0 0 0 0 0 0 0 -0 -0 -0 -0 -0 -0 -1 -0 -0 -0 -0 -0 -1 -1 nan
nan -0 -1 -1 -1 -0 0 -0 -0 -0 0 -0 -0 -0 0 0 0 0 0 0 0 0 0 0 0 -0 -0 -0 -0 -0 -0 -0 -0 0 0 -0 -1 -1 0 0 -0 -0 -0 -1 nan
nan -0 -1 -1 -1 -1 0 -1 -1 -1 -0 -0 0 0 0 0 0 0 0 0 0 0 0 0 -0 -0 0 0 0 0 0 -0 -0 0 0 -0 -1 -1 -0 -0 -1 -0 0 -1 nan
nan -1 -1 -1 -1 -1 0 -0 -0 0 -0 0 1 -0 -0 0 -0 -0 -0 -0 -0 -0 0 0 -0 0 0 0 0 0 -0 -0 0 -0 -0 -0 -2 -1 -0 0 0 0 -0 -0 nan
nan -1 -0 -1 -1 -0 0 1 0 0 -0 -0 0 -0 0 0 -0 -0 0 -0 -0 -0 -0 -0 -0 0 0 -0 0 -0 -0 0 0 0 -0 0 -1 -1 -0 -0 0 0 -0 -0 nan
nan -0 -0 -0 -1 -1 0 1 1 0 -0 0 -0 -0 -0 0 -0 0 0 0 -0 -0 -0 -0 0 0 -0 -0 -0 -0 0 0 0 0 -0 -0 -0 -0 -0 -0 -0 -0 -1 -1 nan
nan -0 0 -0 -1 -1 0 1 1 -0 -0 0 -0 -0 -0 -0 0 -0 0 0 0 -0 0 0 -0 -0 -0 -0 -0 -0 0 -0 0 -0 -0 -0 -0 -1 -0 -0 -0 -0 -1 -1 nan
nan -0 0 -0 -1 -1 0 0 -0 0 -0 -0 -0 -0 -0 -0 0 -0 -0 0 -0 0 0 -0 0 -0 -0 -0 0 0 0 -0 -0 -0 -0 0 -0 -1 -0 -0 -0 0 -1 -2 nan
nan -0 -0 -1 -1 0 0 -0 0 -0 0 0 -0 0 0 0 0 0 -0 -0 -0 -0 -0 0 -0 0 0 0 -0 0 -0 -0 0 -0 0 -0 -1 -0 -0 -0 0 0 -0 -1 nan
nan 0 0 0 1 1 1 0 -0 -0 -0 0 -0 0 0 0 0 0 0 -0 0 -0 -0 0 0 -0 0 -0 0 -0 -0 -0 -0 -0 -0 -0 -0 -0 -0 0 -0 -0 -0 -1 nan
nan 0 -0 0 0 0 -0 0 0 0 -0 -0 -0 0 -0 -0 0 0 0 -0 0 0 0 -0 0 -0 -0 0 0 -0 -0 0 0 -0 -0 0 -0 -0 -0 0 0 -0 -0 -1 nan
nan -0 -0 -0 0 0 0 0 0 0 0 -0 -0 -0 -0 0 -0 -0 0 0 0 0 0 -0 -0 0 0 -0 -0 -0 -0 -0 -0 -0 -0 -0 -0 -0 -0 0 -0 -0 -0 -1 nan
nan -0 0 -1 -0 0 0 0 -0 0 0 0 0 -0 -0 -0 0 0 0 -0 0 0 0 -0 0 0 -1 -0 -0 0 0 0 -0 0 0 -0 -1 -0 -0 0 -0 -0 -0 0 nan
nan 0 0 0 -0 -0 -0 0 0 0 0 -0 0 0 -0 -0 -0 0 0 -0 -0 -0 -0 -0 0 0 -0 0 0 0 0 0 0 -0 -0 -0 -1 0 -0 0 0 -0 -0 -0 nan
nan -0 -0 0 0 0 0 0 0 0 0 0 -0 -0 -0 -0 0 -0 -0 -0 0 -0 -0 -0 0 -0 -0 0 0 0 0 0 -0 -0 -0 -1 -1 -1 -0 0 0 -0 -0 0 nan
nan -0 -0 0 -0 -0 0 -0 -0 0 0 0 0 -0 -0 0 0 0 0 0 -0 0 0 0 0 -0 -0 0 1 0 -0 -0 -0 -0 -0 -1 -0 -0 0 0 0 0 -0 -0 nan
nan -0 -0 0 0 0 -0 0 -0 -0 0 -0 -0 0 0 -0 0 -0 -0 -0 -0 -0 0 -0 0 -0 -1 -1 1 0 -0 0 -0 -0 -1 -0 -1 -0 0 0 0 0 -0 -0 nan
nan nan nan nan nan nan nan nan nan nan nan nan nan nan nan nan nan nan nan nan nan nan nan nan nan nan nan nan nan nan nan nan nan nan nan nan nan nan nan nan nan nan nan nan nan
Wind_Speed
20 21 20 19 20 16 13 12 10 10 10 8 5 4 6 11 13 16 15 12 9 14 7 5 6 5 3 5 6 6 2 5 7 7 5 1 2 2 3 4 5 2 5 4 4
20 20 19 18 19 17 14 13 12 9 8 7 6 7 9 10 11 18 15 14 9 10 10 7 5 4 5 5 5 3 3 8 6 5 3 3 3 6 4 6 5 12 8 8 9
20 19 20 19 16 17 17 14 11 8 6 5 6 9 9 6 11 15 18 17 15 11 9 6 5 5 3 5 5 4 5 4 3 3 4 3 6 5 5 6 13 10 10 7 7
19 19 20 21 17 15 17 14 10 8 6 4 6 6 8 7 5 3 6 10 23 22 13 8 6 4 3 3 3 2 7 6 4 7 4 2 3 6 10 16 16 13 12 10 11
21 19 20 20 21 15 14 15 11 8 6 5 5 5 6 7 11 4 2 4 7 23 20 11 6 5 3 2 2 3 3 5 7 9 10 12 15 13 18 25 23 21 22 23 21
21 17 24 20 20 20 13 15 12 10 7 6 5 6 7 3 9 14 7 3 6 15 18 16 5 8 3 3 3 2 4 8 10 13 12 13 21 11 21 19 26 28 28 28 26
21 21 16 23 22 21 15 12 13 10 8 6 6 6 8 12 6 5 14 7 7 13 15 16 9 7 6 1 3 4 5 7 9 11 8 9 16 14 28 30 31 32 35 34 33
24 23 20 18 23 21 19 14 12 9 8 6 6 7 7 5 7 12 15 11 9 12 9 7 11 7 4 1 2 3 3 3 3 1 7 11 12 10 14 14 26 33 32 38 38
25 22 25 20 24 21 22 18 11 10 9 7 7 6 7 4 6 8 14 15 11 11 10 8 7 4 3 2 4 4 3 5 5 6 2 10 7 3 4 7 11 15 20 27 30
26 23 22 22 18 22 22 16 14 13 10 6 7 6 7 2 3 6 15 12 11 10 8 6 4 3 3 5 6 4 5 6 5 1 4 13 19 17 21 22 23 21 27 28 27
25 24 20 23 14 21 27 24 14 5 15 9 6 3 2 4 6 5 15 14 11 9 5 4 5 8 11 6 4 1 3 11 7 8 11 15 22 19 24 24 25 27 28 29 35
24 20 19 19 20 24 40 30 29 10 6 27 18 11 3 5 5 5 16 10 7 4 6 3 10 9 8 5 10 11 13 15 11 9 11 14 27 18 19 24 28 31 30 32 38
26 24 20 22 22 23 42 37 25 17 5 5 19 20 11 10 2 9 21 9 4 5 7 6 4 5 8 5 12 10 13 12 17 9 14 17 24 16 16 27 31 34 36 35 35
27 25 19 21 17 21 36 35 23 17 4 4 5 6 17 8 4 15 20 9 3 11 5 6 9 4 4 8 10 16 6 10 11 6 7 2 10 8 7 14 13 17 25 32 38
29 27 17 15 17 12 21 30 26 16 2 3 5 8 13 14 8 6 19 9 7 6 5 4 5 5 12 12 9 7 5 6 8 8 11 14 7 7 1 5 8 11 25 29 34
32 23 16 23 19 21 24 34 25 4 6 7 6 6 9 8 5 5 8 6 3 5 8 7 4 5 8 7 14 1 3 4 3 5 9 11 11 20 7 8 5 9 20 26 28
29 28 30 28 26 27 44 35 4 4 2 8 5 7 8 7 5 5 7 8 5 4 4 3 15 6 5 5 3 12 2 3 4 6 7 5 11 19 9 16 15 13 19 29 27
20 15 16 27 23 23 41 4 4 5 4 5 6 9 5 5 4 7 5 7 11 5 1 4 4 11 9 13 6 14 11 5 5 5 3 2 9 8 14 18 21 22 28 33 32
8 1 12 22 22 20 16 3 6 6 8 10 11 6 4 4 3 5 8 5 7 13 5 3 4 2 7 3 11 5 10 10 9 13 9 9 12 10 13 9 3 10 16 21 28
1 4 10 14 21 14 3 4 3 5 12 11 5 5 10 9 7 8 6 2 4 10 12 1 5 3 1 6 10 9 1 4 5 5 9 6 6 10 5 5 3 9 16 22 25
5 4 7 16 20 9 2 1 5 7 10 4 4 5 5 7 8 6 3 3 5 1 9 4 4 3 4 9 10 8 7 7 3 4 5 7 8 7 6 6 3 9 20 24 31
5 0 9 17 3 1 2 5 6 3 5 3 4 4 4 7 6 6 6 5 11 9 8 7 3 5 11 10 15 19 19 17 7 11 5 4 18 4 6 4 5 11 19 27 28
2 3 21 26 2 2 2 4 5 3 2 2 3 3 2 5 3 5 4 3 16 9 10 8 4 5 6 2 6 10 18 19 12 4 13 6 11 4 2 5 9 10 18 26 21
2 2 7 10 0 4 5 3 4 5 3 5 4 4 3 3 4 0 4 3 16 10 10 13 4 7 9 15 9 8 14 19 18 7 17 19 21 15 15 13 10 9 18 22 16
1 3 3 2 2 7 3 4 5 3 2 4 3 5 4 4 4 6 7 3 5 12 7 9 7 10 19 26 23 24 25 17 20 24 11 19 21 16 13 12 2 8 15 19 16
3 2 3 3 10 7 5 5 7 4 5 5 2 7 7 5 7 5 3 4 5 3 7 5 5 4 21 21 22 19 16 15 20 21 23 23 26 12 7 7 3 9 16 21 18
14 3 4 11 6 6 4 6 7 7 4 2 9 4 8 11 14 16 13 7 3 4 10 4 3 3 13 10 17 5 5 9 11 16 14 17 17 2 5 10 13 16 23 26 22
Wind_Direction
292 291 286 301 314 310 291 280 281 286 286 276 276 232 220 223 231 246 246 259 251 241 234 222 230 216 172 173 171 160 139 211 224 175 225 216 186 206 316 258 344 324 294 304 300
287 282 278 285 305 313 300 282 282 282 283 270 241 224 231 243 240 251 256 253 253 245 215 227 201 182 161 150 172 169 188 214 196 187 228 278 272 286 317 302 282 304 314 293 260
276 287 276 276 285 300 309 279 279 275 269 271 245 230 228 253 263 259 246 241 233 218 206 198 179 150 142 153 179 185 228 185 204 197 279 276 291 264 243 263 257 287 292 306 307
297 273 277 265 268 280 303 282 270 260 261 260 254 233 225 209 220 198 228 232 232 227 229 214 187 136 123 183 190 213 256 245 242 264 282 255 263 269 249 249 264 265 263 280 292
304 277 268 266 259 261 284 293 262 248 244 249 250 240 215 212 237 234 262 232 215 209 215 209 194 139 163 187 157 214 257 257 265 286 279 274 251 251 252 258 263 260 271 269 275
296 316 266 258 258 253 259 284 262 244 239 241 241 231 217 218 242 237 239 223 198 195 202 211 203 199 171 186 181 215 263 275 280 268 264 255 262 245 256 263 261 260 258 259 262
307 302 304 252 247 244 242 266 264 240 234 235 236 231 236 247 245 232 200 195 165 174 199 210 210 176 181 180 213 253 281 277 245 243 242 252 261 238 254 250 248 248 251 251 253
314 294 306 273 244 236 238 228 249 228 219 222 231 250 247 244 232 225 190 169 153 165 170 181 201 206 209 332 323 222 206 261 254 210 242 195 258 276 240 258 243 249 250 253 249
313 302 286 301 240 231 228 220 209 207 207 212 234 245 264 245 239 217 193 187 163 155 129 120 142 148 123 165 283 230 243 225 296 204 259 201 274 295 236 312 284 274 268 263 262
311 307 302 278 248 226 221 200 185 189 185 194 236 270 243 148 157 180 185 184 193 192 184 173 162 150 156 186 223 215 234 247 228 325 360 294 275 280 283 293 290 287 284 278 272
309 303 298 272 274 217 208 164 145 179 182 201 197 236 100 136 142 151 173 166 151 158 165 161 209 210 202 202 219 136 258 262 271 299 313 273 278 275 275 269 271 270 271 270 271
316 304 294 286 281 228 204 179 182 166 180 227 233 230 200 113 130 149 165 159 149 161 131 142 232 231 242 222 240 248 262 270 288 278 278 293 282 276 265 259 253 257 254 256 261
318 314 293 287 264 241 195 196 187 189 93 221 228 228 219 227 231 183 171 158 132 139 190 189 175 192 193 212 239 237 241 261 270 295 280 280 280 266 253 254 252 251 255 253 250
306 304 285 289 283 248 199 185 184 185 80 230 204 220 196 174 261 215 186 163 158 193 167 240 233 191 174 221 209 255 209 246 258 272 273 130 292 256 265 270 265 243 248 248 251
302 298 272 272 269 293 198 164 169 158 59 155 154 149 164 167 142 181 194 193 163 179 164 218 186 175 222 235 178 236 192 209 225 240 279 242 266 280 330 280 268 255 253 255 256
299 280 255 272 268 246 188 166 151 79 240 160 134 173 152 191 153 126 176 187 185 216 229 218 183 171 196 214 199 113 286 275 243 229 245 234 205 277 263 240 258 259 263 269 268
302 270 252 249 242 236 166 142 106 150 170 155 160 166 171 162 167 160 169 182 185 179 224 247 235 195 179 202 187 182 202 229 231 215 249 199 191 244 298 294 273 272 269 275 274
300 278 238 219 200 163 156 136 110 156 160 134 126 130 165 136 202 178 156 203 214 191 168 221 303 192 186 214 189 190 197 218 231 214 250 215 235 246 227 252 266 283 286 286 277
291 165 169 191 189 173 171 126 169 173 145 132 124 144 176 200 186 170 209 214 195 187 199 195 263 14 199 204 216 176 215 232 268 265 268 239 262 293 259 257 300 313 327 311 289
316 201 211 199 181 189 184 122 109 116 116 137 131 172 178 187 171 184 195 225 208 180 195 173 276 205 258 189 240 231 191 180 197 248 243 247 248 235 277 263 311 341 343 340 332
300 265 167 164 161 159 127 142 90 103 120 145 122 141 156 164 174 185 202 265 199 133 160 142 187 229 139 206 212 197 222 213 249 217 252 272 257 211 218 152 9 342 349 345 339
302 202 130 162 104 111 150 139 111 109 70 93 94 104 140 158 168 194 211 227 185 146 167 185 222 249 229 217 204 219 223 216 229 217 214 236 260 157 148 165 55 3 349 356 342
245 67 145 166 130 150 167 73 92 107 112 94 89 68 101 152 173 202 182 210 172 166 167 166 214 295 292 8 230 229 224 220 234 242 228 231 257 228 201 18 26 1 351 360 339
111 90 93 169 158 116 128 81 94 63 82 91 98 96 94 202 221 149 218 247 198 193 179 172 210 218 252 265 255 247 233 224 221 235 246 234 262 267 295 301 324 354 352 348 318
121 80 150 150 193 166 80 110 111 138 66 117 143 210 167 222 211 220 220 259 174 189 193 178 252 238 252 261 271 267 267 237 214 230 229 254 248 262 253 261 278 332 321 324 290
24 137 133 110 143 151 127 196 168 136 145 177 233 185 193 222 217 175 183 179 216 128 171 202 264 267 274 270 268 269 274 235 220 228 239 254 264 265 276 203 225 330 322 290 278
344 349 118 161 156 155 176 168 184 124 235 172 207 200 224 248 241 256 257 249 221 166 193 208 239 276 286 319 301 262 262 209 215 219 225 238 247 268 292 281 300 295 265 265 248
Height
1490 1490 1490 1489 1488 1486 1484 1484 1482 1482 1483 1483 1482 1483 1485 1487 1488 1488 1489 1492 1494 1494 1495 1496 1498 1499 1500 1502 1504 1504 1509 1510 1507 1510 1505 1504 1505 1504 1504 1503 1503 1502 1502 1502 1501
1487 1487 1486 1486 1485 1485 1482 1481 1480 1480 1480 1481 1480 1481 1482 1485 1486 1484 1487 1489 1491 1493 1493 1495 1497 1498 1498 1500 1501 1503 1506 1503 1501 1502 1503 1503 1504 1503 1504 1502 1501 1501 1501 1501 1500
1483 1482 1483 1483 1483 1482 1480 1480 1478 1479 1478 1478 1478 1479 1481 1483 1485 1482 1483 1485 1488 1490 1492 1494 1496 1496 1498 1498 1500 1502 1501 1499 1498 1500 1502 1502 1502 1502 1501 1500 1497 1499 1499 1498 1498
1478 1477 1477 1478 1479 1479 1478 1477 1477 1476 1476 1475 1477 1477 1478 1482 1487 1479 1479 1479 1483 1487 1490 1493 1494 1494 1497 1498 1499 1502 1498 1498 1498 1498 1499 1500 1499 1498 1497 1493 1495 1497 1497 1496 1496
1474 1472 1471 1472 1474 1474 1475 1475 1475 1475 1474 1474 1475 1475 1477 1480 1479 1479 1478 1478 1480 1482 1487 1491 1492 1493 1496 1498 1499 1500 1498 1497 1496 1497 1497 1496 1494 1494 1490 1490 1492 1493 1493 1493 1493
1469 1467 1467 1467 1469 1471 1471 1473 1471 1473 1473 1472 1474 1475 1476 1478 1475 1476 1478 1478 1479 1481 1484 1488 1490 1493 1495 1497 1499 1498 1497 1496 1494 1494 1493 1492 1488 1491 1481 1485 1485 1487 1488 1489 1488
1463 1461 1460 1461 1462 1465 1466 1468 1470 1470 1470 1471 1473 1473 1473 1471 1472 1474 1476 1477 1478 1481 1483 1486 1489 1493 1495 1497 1497 1497 1498 1494 1490 1489 1489 1488 1482 1478 1477 1479 1478 1478 1480 1482 1482
1459 1457 1455 1453 1455 1458 1461 1463 1466 1467 1469 1470 1472 1472 1469 1467 1469 1472 1474 1476 1478 1480 1483 1486 1489 1492 1495 1497 1496 1497 1496 1493 1486 1485 1484 1486 1473 1470 1471 1471 1469 1469 1471 1472 1474
1454 1451 1449 1447 1448 1452 1456 1459 1462 1465 1467 1469 1471 1471 1466 1465 1467 1469 1472 1475 1478 1482 1484 1486 1489 1492 1495 1497 1498 1495 1494 1493 1487 1482 1481 1482 1472 1466 1466 1466 1467 1466 1466 1466 1467
1449 1446 1444 1443 1441 1447 1450 1454 1458 1463 1465 1468 1469 1472 1465 1464 1465 1467 1470 1474 1477 1481 1485 1487 1490 1492 1493 1494 1495 1492 1492 1488 1487 1484 1482 1479 1470 1467 1466 1463 1460 1460 1460 1460 1461
1443 1441 1439 1437 1436 1439 1444 1447 1457 1462 1462 1460 1462 1464 1462 1463 1465 1466 1468 1473 1476 1480 1484 1485 1487 1488 1487 1490 1489 1492 1492 1489 1485 1483 1483 1474 1464 1462 1460 1458 1456 1454 1453 1452 1452
1438 1435 1434 1432 1431 1431 1430 1435 1440 1446 1456 1457 1459 1461 1462 1462 1464 1465 1469 1473 1475 1480 1483 1487 1484 1481 1483 1486 1488 1487 1487 1485 1481 1483 1483 1474 1450 1453 1451 1444 1444 1443 1444 1443 1445
1433 1430 1428 1427 1424 1424 1421 1429 1436 1442 1450 1454 1453 1456 1461 1463 1462 1464 1468 1470 1473 1479 1480 1480 1478 1478 1483 1486 1487 1487 1486 1483 1483 1485 1481 1476 1442 1432 1427 1429 1431 1433 1433 1434 1435
1428 1425 1423 1422 1425 1420 1420 1424 1433 1442 1462 1452 1452 1451 1455 1460 1461 1462 1464 1468 1472 1475 1479 1479 1475 1478 1483 1484 1486 1485 1483 1482 1485 1489 1482 1477 1451 1428 1425 1423 1423 1425 1424 1423 1424
1420 1418 1418 1421 1417 1417 1419 1422 1429 1439 1476 1449 1449 1450 1451 1458 1457 1459 1462 1465 1468 1471 1475 1472 1472 1477 1478 1478 1483 1480 1478 1480 1482 1483 1481 1472 1478 1420 1429 1425 1421 1417 1413 1413 1415
1410 1409 1412 1413 1413 1413 1417 1420 1429 1446 1466 1442 1445 1446 1450 1455 1455 1458 1461 1464 1466 1467 1468 1469 1470 1471 1471 1472 1474 1475 1479 1479 1478 1479 1466 1459 1467 1414 1419 1415 1413 1411 1409 1409 1409
1396 1395 1399 1405 1406 1409 1412 1417 1433 1444 1434 1439 1440 1443 1445 1450 1453 1454 1458 1461 1462 1467 1468 1465 1462 1464 1467 1470 1471 1474 1478 1472 1469 1465 1451 1449 1457 1416 1414 1414 1412 1407 1403 1402 1402
1387 1384 1386 1392 1402 1403 1405 1416 1431 1422 1429 1430 1435 1441 1445 1447 1450 1452 1455 1457 1458 1461 1464 1461 1465 1459 1461 1460 1462 1465 1467 1461 1457 1456 1449 1451 1435 1413 1407 1404 1402 1402 1401 1396 1394
1384 1382 1384 1389 1397 1404 1408 1410 1410 1414 1418 1425 1437 1442 1446 1447 1449 1449 1452 1452 1450 1455 1460 1462 1462 1458 1459 1459 1461 1462 1461 1456 1457 1449 1448 1428 1416 1408 1401 1402 1403 1402 1397 1391 1387
1385 1385 1386 1390 1397 1403 1408 1402 1407 1407 1414 1421 1428 1436 1441 1444 1449 1449 1450 1447 1447 1447 1452 1458 1463 1454 1454 1456 1456 1455 1457 1457 1457 1447 1433 1419 1421 1404 1400 1395 1400 1397 1393 1385 1381
1385 1385 1385 1389 1397 1403 1403 1406 1406 1410 1413 1419 1424 1431 1433 1437 1442 1444 1446 1445 1445 1447 1449 1455 1461 1456 1453 1450 1444 1451 1449 1448 1445 1438 1426 1417 1399 1394 1391 1395 1395 1392 1387 1382 1378
1385 1384 1385 1390 1398 1404 1404 1403 1406 1413 1414 1417 1420 1425 1430 1435 1439 1441 1444 1444 1442 1445 1451 1451 1455 1454 1445 1432 1433 1434 1430 1433 1429 1421 1423 1422 1385 1388 1392 1393 1390 1387 1384 1379 1378
1383 1383 1390 1393 1398 1403 1405 1405 1407 1413 1416 1418 1422 1423 1427 1432 1439 1439 1442 1439 1440 1441 1444 1447 1450 1451 1436 1434 1429 1427 1418 1420 1422 1423 1413 1417 1381 1382 1385 1387 1386 1386 1384 1379 1380
1386 1388 1394 1401 1400 1402 1403 1407 1412 1415 1417 1418 1422 1425 1429 1431 1433 1437 1439 1436 1436 1438 1439 1441 1443 1438 1427 1418 1420 1416 1413 1415 1417 1412 1395 1395 1385 1387 1382 1382 1383 1384 1383 1381 1383
1387 1392 1395 1399 1403 1403 1402 1408 1414 1418 1418 1419 1424 1424 1427 1429 1431 1432 1435 1435 1435 1436 1438 1440 1436 1433 1423 1413 1413 1408 1402 1404 1403 1398 1402 1376 1383 1382 1383 1383 1384 1384 1385 1380 1383
1389 1390 1394 1396 1399 1401 1404 1410 1411 1415 1418 1421 1423 1422 1425 1426 1426 1429 1430 1432 1430 1432 1436 1436 1429 1426 1410 1406 1399 1395 1387 1387 1394 1395 1390 1386 1375 1379 1377 1376 1379 1381 1379 1378 1379
1395 1391 1393 1401 1401 1402 1405 1409 1411 1412 1417 1416 1418 1422 1424 1421 1423 1423 1425 1426 1426 1428 1430 1430 1430 1422 1398 1393 1387 1382 1377 1381 1383 1384 1384 1384 1373 1374 1373 1375 1374 1373 1377 1376 1375